Location: Newark
(44.6028°N, 124.0883°W)
Time: 03:42:13
(UTC+00:00)

Explorer 7 - All Passes

Search period start: 17 October 2019 00:00
Search period end: 27 October 2019 00:00
Orbit: 485 x 680 km, 50.3° (Epoch: 15 October)

Date Brightness Start Highest point End Pass type
(mag) Time Alt. Az. Time Alt. Az. Time Alt. Az.
17 Oct - 00:23:05 10° WNW 00:26:44 37° N 00:30:33 10° ENE daylight
17 Oct - 02:03:32 10° WNW 02:07:34 87° NNE 02:11:50 10° ESE visible
17 Oct - 03:44:35 10° W 03:47:45 21° SW 03:51:04 10° S visible
17 Oct - 19:27:28 10° S 19:29:59 17° SE 19:32:30 10° E daylight
17 Oct - 21:06:15 10° WSW 21:10:00 89° NNW 21:13:51 10° ENE daylight
17 Oct - 22:47:15 10° WNW 22:50:48 36° N 22:54:30 10° ENE daylight
18 Oct - 00:28:08 10° WNW 00:31:52 42° NNE 00:35:47 10° E daylight
18 Oct - 02:08:34 10° WNW 02:12:33 65° SSW 02:16:46 10° SE visible
18 Oct - 03:50:31 10° WSW 03:52:33 13° SW 03:54:37 10° SSW visible
18 Oct - 19:31:34 10° SSW 19:34:47 27° SE 19:38:01 10° E daylight
18 Oct - 21:11:19 10° WSW 21:15:03 63° NNW 21:18:52 10° ENE daylight
18 Oct - 22:52:27 10° WNW 22:55:59 34° N 22:59:37 10° ENE daylight
19 Oct - 00:33:09 10° WNW 00:36:59 52° NNE 00:41:00 10° E daylight
19 Oct - 02:13:40 10° WNW 02:17:28 42° SW 02:21:30 10° SE visible
19 Oct - 19:36:04 10° SW 19:39:38 44° SE 19:43:15 10° ENE daylight
19 Oct - 21:16:28 10° W 21:20:07 48° NNW 21:23:52 10° ENE daylight
19 Oct - 22:57:37 10° WNW 23:01:09 35° N 23:04:48 10° ENE daylight
20 Oct - 00:38:09 10° WNW 00:42:03 70° NNE 00:46:09 10° ESE daylight
20 Oct - 02:18:54 10° W 02:22:21 27° SW 02:25:58 10° SSE visible
20 Oct - 18:03:06 10° SSE 18:04:41 12° SE 18:06:15 10° ESE daylight
20 Oct - 19:40:51 10° SW 19:44:34 70° SSE 19:48:20 10° ENE daylight
20 Oct - 21:21:41 10° W 21:25:15 39° N 21:28:53 10° ENE daylight
20 Oct - 23:02:43 10° WNW 23:06:18 38° N 23:10:02 10° E daylight
21 Oct - 00:43:09 10° WNW 00:47:04 84° SSW 00:51:11 10° ESE daylight
21 Oct - 02:24:26 10° W 02:27:10 18° SW 02:29:59 10° S visible
21 Oct - 18:06:37 10° S 18:09:27 20° SE 18:12:15 10° E daylight
21 Oct - 19:45:49 10° WSW 19:49:34 79° NNW 19:53:21 10° ENE daylight
21 Oct - 21:26:54 10° WNW 21:30:24 35° N 21:33:58 10° ENE daylight
21 Oct - 23:07:45 10° WNW 23:11:26 44° NNE 23:15:15 10° E daylight
22 Oct - 00:48:11 10° WNW 00:52:01 56° SSW 00:56:04 10° SE daylight
22 Oct - 02:31:05 10° WSW 02:31:56 11° SW 02:32:47 10° SW visible
22 Oct - 18:10:53 10° SSW 18:14:16 32° SE 18:17:38 10° ENE daylight
22 Oct - 19:50:54 10° W 19:54:36 57° NNW 19:58:20 10° ENE daylight
22 Oct - 21:32:06 10° WNW 21:35:34 33° N 21:39:06 10° ENE daylight
22 Oct - 23:12:45 10° WNW 23:16:31 56° NNE 23:20:27 10° E daylight
23 Oct - 00:53:20 10° WNW 00:56:56 36° SW 01:00:42 10° SSE daylight
23 Oct - 18:15:29 10° SW 18:19:09 51° SSE 18:22:48 10° ENE daylight
23 Oct - 19:56:05 10° W 19:59:42 44° NNW 20:03:20 10° ENE daylight
23 Oct - 21:37:14 10° WNW 21:40:43 35° N 21:44:18 10° ENE daylight
23 Oct - 23:17:44 10° WNW 23:21:34 77° NNE 23:25:34 10° ESE daylight
24 Oct - 00:58:40 10° W 01:01:47 23° SW 01:05:01 10° S daylight
24 Oct - 16:41:55 10° S 16:44:07 15° SE 16:46:17 10° E daylight
24 Oct - 18:20:19 10° WSW 18:24:06 80° SSE 18:27:51 10° ENE daylight
24 Oct - 20:01:18 10° W 20:04:49 37° N 20:08:23 10° ENE daylight
24 Oct - 21:42:18 10° WNW 21:45:52 39° NNE 21:49:32 10° E daylight
24 Oct - 23:22:44 10° WNW 23:26:34 74° SSW 23:30:33 10° SE daylight
25 Oct - 01:04:24 10° W 01:06:35 14° SW 01:08:48 10° SSW daylight
25 Oct - 16:45:47 10° SSW 16:48:54 24° SE 16:51:59 10° E daylight
25 Oct - 18:25:20 10° WSW 18:29:06 71° NNW 18:32:51 10° ENE daylight
25 Oct - 20:06:31 10° WNW 20:09:59 34° N 20:13:28 10° ENE daylight
25 Oct - 21:47:19 10° WNW 21:50:59 47° NNE 21:54:45 10° E daylight
25 Oct - 23:27:48 10° WNW 23:31:30 47° SW 23:35:21 10° SE daylight
26 Oct - 16:50:10 10° SSW 16:53:45 38° SE 16:57:16 10° ENE daylight
26 Oct - 18:30:27 10° W 18:34:10 52° NNW 18:37:51 10° ENE daylight
26 Oct - 20:11:41 10° WNW 20:15:08 33° N 20:18:37 10° ENE daylight
26 Oct - 21:52:20 10° WNW 21:56:04 61° NNE 21:59:55 10° ESE daylight
26 Oct - 23:33:00 10° WNW 23:36:23 30° SW 23:39:53 10° SSE daylight
